2016-12-08 00:05:19 r, 14.21m,0000000183Hz,0000000000c,0000000.000s, 010.9C,00002195
2016-12-08 00:15:19 r, 14.42m,0000000152Hz,0000000000c,0000000.000s, 010.9C,00002195
2016-12-08 00:25:18 r, 14.28m,0000000173Hz,0000000000c,0000000.000s, 010.9C,00002195
2016-12-08 00:35:18 r, 14.45m,0000000148Hz,0000000000c,0000000.000s, 010.9C,00002195
2016-12-08 00:45:18 r, 14.48m,0000000144Hz,0000000000c,0000000.000s, 010.9C,00002195
2016-12-08 00:55:19 r, 14.54m,0000000136Hz,0000000000c,0000000.000s, 010.9C,00002195
2016-12-08 01:05:19 r, 14.46m,0000000147Hz,0000000000c,0000000.000s, 010.9C,00002195
2016-12-08 01:15:19 r, 14.43m,0000000151Hz,0000000000c,0000000.000s, 010.9C,00002195
2016-12-08 01:25:18 r, 14.50m,0000000141Hz,0000000000c,0000000.000s, 010.6C,00002195
2016-12-08 01:35:18 r, 14.66m,0000000121Hz,0000003821c,0000000.008s, 010.6C,00002195
2016-12-08 01:45:18 r, 14.86m,0000000100Hz,0000004607c,0000000.010s, 010.6C,00002195
2016-12-08 01:55:18 r, 14.68m,0000000118Hz,0000003890c,0000000.008s, 010.6C,00002195
2016-12-08 02:05:18 r, 14.59m,0000000130Hz,0000000000c,0000000.000s, 010.6C,00002195
2016-12-08 02:15:19 r, 14.65m,0000000122Hz,0000003770c,0000000.008s, 010.3C,00002195
2016-12-08 02:25:18 r, 14.62m,0000000124Hz,0000003693c,0000000.008s, 010.3C,00002195
2016-12-08 02:35:18 r, 14.93m,0000000094Hz,0000004901c,0000000.011s, 010.3C,00002195
2016-12-08 02:45:18 r, 14.90m,0000000096Hz,0000004782c,0000000.010s, 010.3C,00002195
2016-12-08 02:55:19 r, 15.00m,0000000089Hz,0000005209c,0000000.011s, 009.9C,00002195
2016-12-08 03:05:18 r, 14.87m,0000000099Hz,0000004656c,0000000.010s, 009.9C,00002195
2016-12-08 03:15:18 r, 14.62m,0000000126Hz,0000003657c,0000000.008s, 009.9C,00002195
2016-12-08 03:25:18 r, 14.65m,0000000121Hz,0000003777c,0000000.008s, 009.9C,00002195
2016-12-08 03:35:18 r, 14.62m,0000000125Hz,0000003668c,0000000.008s, 009.6C,00002195
2016-12-08 03:45:18 r, 14.60m,0000000129Hz,0000000000c,0000000.000s, 009.9C,00002195
2016-12-08 03:55:18 r, 14.64m,0000000123Hz,0000003731c,0000000.008s, 009.9C,00002195
2016-12-08 04:05:18 r, 14.62m,0000000125Hz,0000003688c,0000000.008s, 009.9C,00002195
2016-12-08 04:15:18 r, 14.49m,0000000142Hz,0000000000c,0000000.000s, 009.9C,00002195
2016-12-08 04:25:19 r, 14.53m,0000000137Hz,0000000000c,0000000.000s, 009.9C,00002195
2016-12-08 04:35:19 r, 14.52m,0000000139Hz,0000000000c,0000000.000s, 009.9C,00002195
2016-12-08 04:45:18 r, 14.42m,0000000152Hz,0000000000c,0000000.000s, 009.9C,00002195
2016-12-08 04:55:19 r, 14.28m,0000000172Hz,0000000000c,0000000.000s, 009.9C,00002195
2016-12-08 05:05:18 r, 14.40m,0000000155Hz,0000000000c,0000000.000s, 009.9C,00002195
2016-12-08 05:15:18 r, 14.43m,0000000151Hz,0000000000c,0000000.000s, 009.9C,00002195
2016-12-08 05:25:19 r, 14.49m,0000000142Hz,0000000000c,0000000.000s, 009.9C,00002195
2016-12-08 05:35:19 r, 14.55m,0000000135Hz,0000000000c,0000000.000s, 009.9C,00002195
2016-12-08 05:45:18 r, 14.49m,0000000142Hz,0000000000c,0000000.000s, 009.9C,00002195
2016-12-08 05:55:18 r, 14.36m,0000000161Hz,0000000000c,0000000.000s, 009.9C,00002195
2016-12-08 06:05:18 r, 14.42m,0000000152Hz,0000000000c,0000000.000s, 009.9C,00002195
2016-12-08 06:15:18 r, 14.41m,0000000154Hz,0000000000c,0000000.000s, 009.9C,00002195
2016-12-08 06:25:18 r, 14.49m,0000000142Hz,0000000000c,0000000.000s, 009.9C,00002195
2016-12-08 06:35:18 r, 14.52m,0000000138Hz,0000000000c,0000000.000s, 009.6C,00002195
2016-12-08 06:45:19 r, 14.52m,0000000139Hz,0000000000c,0000000.000s, 009.6C,00002195
2016-12-08 06:55:18 r, 14.54m,0000000136Hz,0000000000c,0000000.000s, 009.6C,00002195
2016-12-08 07:05:18 r, 14.52m,0000000139Hz,0000000000c,0000000.000s, 009.6C,00002195
2016-12-08 07:15:19 r, 14.44m,0000000149Hz,0000000000c,0000000.000s, 009.6C,00002195
2016-12-08 07:25:18 r, 14.00m,0000000223Hz,0000000000c,0000000.000s, 009.6C,00002195
2016-12-08 07:35:18 r, 12.89m,0000000627Hz,0000000000c,0000000.000s, 009.6C,00002195
2016-12-08 07:45:19 r, 11.15m,0000003090Hz,0000000000c,0000000.000s, 009.6C,00002195
2016-12-08 07:55:18 r, 09.48m,0000014460Hz,0000000000c,0000000.000s, 009.6C,00002195
2016-12-08 08:05:18 r, 08.24m,0000044998Hz,0000000000c,0000000.000s, 009.6C,00002195
2016-12-08 08:15:19 r, 07.30m,0000107083Hz,0000000000c,0000000.000s, 009.6C,00002195
2016-12-08 08:25:18 r, 06.59m,0000206143Hz,0000000000c,0000000.000s, 009.6C,00002195
2016-12-08 08:35:20 r, 06.02m,0000347413Hz,0000000000c,0000000.000s, 009.6C,00002195
2016-12-08 08:45:18 r, 00.00m,0000521951Hz,0000000000c,0000000.000s, 009.6C,00002195
2016-12-08 08:55:19 r, 00.00m,0000562394Hz,0000000000c,0000000.000s, 009.6C,00002195
2016-12-08 09:05:18 r, 00.00m,0000562295Hz,0000000000c,0000000.000s, 009.9C,00002195
2016-12-08 09:15:19 r, 00.00m,0000562340Hz,0000000000c,0000000.000s, 009.9C,00002195
2016-12-08 09:25:19 r, 00.00m,0000562362Hz,0000000000c,0000000.000s, 009.9C,00002195
2016-12-08 09:35:18 r, 00.00m,0000562445Hz,0000000000c,0000000.000s, 010.3C,00002195
2016-12-08 09:45:18 r, 00.00m,0000562410Hz,0000000000c,0000000.000s, 010.6C,00002195
2016-12-08 09:55:18 r, 00.00m,0000562528Hz,0000000000c,0000000.000s, 010.6C,00002195
2016-12-08 10:05:18 r, 00.00m,0000562364Hz,0000000000c,0000000.000s, 010.6C,00002195
2016-12-08 10:15:18 r, 00.00m,0000562430Hz,0000000000c,0000000.000s, 010.9C,00002195
2016-12-08 10:25:18 r, 00.00m,0000562514Hz,0000000000c,0000000.000s, 010.9C,00002195
2016-12-08 10:35:20 r, 00.00m,0000562610Hz,0000000000c,0000000.000s, 010.9C,00002195
2016-12-08 10:45:18 r, 00.00m,0000562565Hz,0000000000c,0000000.000s, 011.2C,00002195
2016-12-08 10:55:19 r, 00.00m,0000562723Hz,0000000000c,0000000.000s, 011.6C,00002195
2016-12-08 11:05:18 r, 00.00m,0000562547Hz,0000000000c,0000000.000s, 011.2C,00002195
2016-12-08 11:15:18 r, 00.00m,0000562569Hz,0000000000c,0000000.000s, 011.6C,00002195
2016-12-08 11:25:18 r, 00.00m,0000562600Hz,0000000000c,0000000.000s, 011.9C,00002195
2016-12-08 11:35:18 r, 00.00m,0000562564Hz,0000000000c,0000000.000s, 011.9C,00002195
2016-12-08 11:45:19 r, 00.00m,0000562760Hz,0000000000c,0000000.000s, 011.9C,00002195
2016-12-08 11:55:18 r, 00.00m,0000562673Hz,0000000000c,0000000.000s, 012.2C,00002195
2016-12-08 12:05:18 r, 00.00m,0000562690Hz,0000000000c,0000000.000s, 011.9C,00002195
2016-12-08 12:15:18 r, 00.00m,0000562658Hz,0000000000c,0000000.000s, 011.9C,00002195
2016-12-08 12:25:21 r, 00.00m,0000562642Hz,0000000000c,0000000.000s, 011.9C,00002195
2016-12-08 12:35:19 r, 00.00m,0000562587Hz,0000000000c,0000000.000s, 011.9C,00002195
2016-12-08 12:45:18 r, 00.00m,0000562617Hz,0000000000c,0000000.000s, 011.9C,00002195
2016-12-08 12:55:19 r, 00.00m,0000562666Hz,0000000000c,0000000.000s, 011.9C,00002195
2016-12-08 13:05:18 r, 00.00m,0000562757Hz,0000000000c,0000000.000s, 011.9C,00002195
2016-12-08 13:15:18 r, 00.00m,0000562631Hz,0000000000c,0000000.000s, 011.9C,00002195
2016-12-08 13:25:18 r, 00.00m,0000562580Hz,0000000000c,0000000.000s, 011.9C,00002195
2016-12-08 13:35:18 r, 00.00m,0000562557Hz,0000000000c,0000000.000s, 012.2C,00002195
2016-12-08 13:45:18 r, 00.00m,0000562579Hz,0000000000c,0000000.000s, 011.9C,00002195
2016-12-08 13:55:19 r, 00.00m,0000562560Hz,0000000000c,0000000.000s, 011.6C,00002195
2016-12-08 14:05:18 r, 00.00m,0000562540Hz,0000000000c,0000000.000s, 011.2C,00002195
2016-12-08 14:15:18 r, 00.00m,0000562470Hz,0000000000c,0000000.000s, 010.9C,00002195
2016-12-08 14:25:18 r, 00.00m,0000562383Hz,0000000000c,0000000.000s, 010.3C,00002195
2016-12-08 14:35:19 r, 00.00m,0000562394Hz,0000000000c,0000000.000s, 009.9C,00002195
2016-12-08 14:45:18 r, 00.00m,0000562405Hz,0000000000c,0000000.000s, 009.9C,00002195
2016-12-08 14:55:18 r, 00.00m,0000562417Hz,0000000000c,0000000.000s, 009.6C,00002195
2016-12-08 15:05:18 r, 00.00m,0000562234Hz,0000000000c,0000000.000s, 009.3C,00002195
2016-12-08 15:15:18 r, 00.00m,0000562121Hz,0000000000c,0000000.000s, 009.0C,00002195
2016-12-08 15:25:19 r, 00.00m,0000562133Hz,0000000000c,0000000.000s, 008.3C,00002195
2016-12-08 15:35:19 r, 00.00m,0000562071Hz,0000000000c,0000000.000s, 008.0C,00002195
2016-12-08 15:45:18 r, 00.00m,0000561985Hz,0000000000c,0000000.000s, 007.7C,00002195
2016-12-08 15:55:18 r, 00.00m,0000454777Hz,0000000000c,0000000.000s, 007.4C,00002195
2016-12-08 16:05:18 r, 06.08m,0000328045Hz,0000000000c,0000000.000s, 006.7C,00002195
2016-12-08 16:15:18 r, 06.58m,0000208714Hz,0000000000c,0000000.000s, 006.7C,00002195
2016-12-08 16:25:19 r, 07.23m,0000114661Hz,0000000000c,0000000.000s, 006.4C,00002195
2016-12-08 16:35:18 r, 08.13m,0000049980Hz,0000000000c,0000000.000s, 006.4C,00002195
2016-12-08 16:45:18 r, 09.50m,0000014111Hz,0000000000c,0000000.000s, 006.1C,00002195
2016-12-08 16:55:18 r, 11.15m,0000003083Hz,0000000000c,0000000.000s, 006.1C,00002195
2016-12-08 17:05:19 r, 13.01m,0000000558Hz,0000000000c,0000000.000s, 005.8C,00002195
2016-12-08 17:15:18 r, 14.74m,0000000114Hz,0000004094c,0000000.009s, 005.8C,00002195
2016-12-08 17:25:19 r, 15.62m,0000000050Hz,0000009265c,0000000.020s, 005.8C,00002195
2016-12-08 17:35:18 r, 15.35m,0000000065Hz,0000007156c,0000000.016s, 005.8C,00002195
2016-12-08 17:45:19 r, 15.18m,0000000074Hz,0000006170c,0000000.013s, 006.1C,00002195
2016-12-08 17:55:19 r, 15.50m,0000000055Hz,0000008213c,0000000.018s, 006.1C,00002195
2016-12-08 18:05:18 r, 15.07m,0000000083Hz,0000005578c,0000000.012s, 006.1C,00002195
2016-12-08 18:15:18 r, 15.41m,0000000061Hz,0000007589c,0000000.016s, 006.1C,00002195
2016-12-08 18:25:18 r, 15.50m,0000000057Hz,0000008240c,0000000.018s, 006.1C,00002195
2016-12-08 18:35:18 r, 15.71m,0000000045Hz,0000010088c,0000000.022s, 006.1C,00002195
2016-12-08 18:45:18 r, 15.20m,0000000075Hz,0000006263c,0000000.014s, 005.8C,00002195
2016-12-08 18:55:18 r, 15.26m,0000000070Hz,0000006607c,0000000.014s, 005.8C,00002195
2016-12-08 19:05:18 r, 15.55m,0000000052Hz,0000008663c,0000000.019s, 005.4C,00002195
2016-12-08 19:15:19 r, 15.45m,0000000059Hz,0000007856c,0000000.017s, 005.4C,00002195
2016-12-08 19:25:18 r, 15.41m,0000000060Hz,0000007587c,0000000.016s, 005.4C,00002195
2016-12-08 19:35:19 r, 15.02m,0000000086Hz,0000005323c,0000000.012s, 005.4C,00002195
2016-12-08 19:45:18 r, 14.98m,0000000090Hz,0000005139c,0000000.011s, 005.4C,00002195
2016-12-08 19:55:18 r, 14.87m,0000000098Hz,0000004666c,0000000.010s, 005.1C,00002195
2016-12-08 20:05:18 r, 14.77m,0000000110Hz,0000004220c,0000000.009s, 005.4C,00002195
2016-12-08 20:15:18 r, 15.32m,0000000066Hz,0000006997c,0000000.015s, 005.4C,00002195
2016-12-08 20:25:18 r, 14.61m,0000000127Hz,0000003638c,0000000.008s, 005.4C,00002195
2016-12-08 20:35:18 r, 14.30m,0000000170Hz,0000000000c,0000000.000s, 005.8C,00002195
2016-12-08 20:45:18 r, 14.24m,0000000178Hz,0000000000c,0000000.000s, 005.8C,00002195
2016-12-08 20:55:19 r, 14.51m,0000000140Hz,0000000000c,0000000.000s, 005.8C,00002195
2016-12-08 21:05:19 r, 14.41m,0000000154Hz,0000000000c,0000000.000s, 005.8C,00002195
2016-12-08 21:15:18 r, 14.50m,0000000141Hz,0000000000c,0000000.000s, 005.8C,00002195
2016-12-08 21:25:19 r, 14.68m,0000000118Hz,0000003889c,0000000.008s, 005.8C,00002195
2016-12-08 21:35:18 r, 14.50m,0000000141Hz,0000000000c,0000000.000s, 005.8C,00002195
2016-12-08 21:45:18 r, 14.56m,0000000133Hz,0000000000c,0000000.000s, 005.4C,00002195
2016-12-08 21:55:18 r, 14.56m,0000000134Hz,0000000000c,0000000.000s, 005.4C,00002195
2016-12-08 22:05:18 r, 14.50m,0000000141Hz,0000000000c,0000000.000s, 005.1C,00002195
2016-12-08 22:15:18 r, 14.56m,0000000133Hz,0000000000c,0000000.000s, 005.1C,00002195
2016-12-08 22:25:18 r, 14.45m,0000000148Hz,0000000000c,0000000.000s, 005.1C,00002195
2016-12-08 22:35:19 r, 14.49m,0000000142Hz,0000000000c,0000000.000s, 005.1C,00002195
2016-12-08 22:45:18 r, 14.50m,0000000141Hz,0000000000c,0000000.000s, 005.1C,00002195
2016-12-08 22:55:18 r, 14.55m,0000000135Hz,0000000000c,0000000.000s, 004.8C,00002195
2016-12-08 23:05:19 r, 14.52m,0000000138Hz,0000000000c,0000000.000s, 004.8C,00002195
2016-12-08 23:15:19 r, 14.67m,0000000119Hz,0000003859c,0000000.008s, 004.8C,00002195
2016-12-08 23:25:19 r, 14.59m,0000000130Hz,0000000000c,0000000.000s, 004.8C,00002195
2016-12-08 23:35:19 r, 14.75m,0000000111Hz,0000004154c,0000000.009s, 004.5C,00002195
2016-12-08 23:45:19 r, 14.72m,0000000115Hz,0000004023c,0000000.009s, 004.8C,00002195
2016-12-08 23:55:21 r, 14.89m,0000000098Hz,0000004712c,0000000.010s, 004.5C,00002195
